RH
34 55 53 43 54 46 45 56 57 72 82 88 86 82 64 67 64 61 61 58 59 58 61 59 56 53 44 35 36 37 37 36 38 37 34 36 38 38 37 38 37 36 35 34
42 46 33 53 67 66 67 61 61 65 71 74 72 69 70 60 58 61 61 60 60 60 59 58 52 44 37 37 39 38 38 38 37 37 35 33 33 34 35 37 39 40 42 42
32 32 38 53 64 70 65 64 62 60 63 66 64 62 55 55 54 48 44 46 49 49 48 44 40 40 41 42 44 44 42 39 38 37 36 34 34 34 34 36 38 40 39 40
40 41 38 45 56 62 64 59 56 56 56 66 65 72 56 54 53 51 48 42 37 34 34 36 41 45 47 48 49 48 48 48 48 47 44 44 44 44 45 43 45 47 44 42
42 41 48 52 39 55 64 63 60 56 61 62 70 75 55 54 50 48 49 47 45 41 41 46 50 52 53 52 52 50 49 48 48 47 47 47 48 48 46 46 47 49 50 49
51 48 60 45 51 60 64 65 63 63 68 83 60 62 55 48 44 44 44 49 51 48 50 54 56 55 54 53 53 52 51 50 49 48 48 49 49 51 53 53 54 55 55 54
65 61 60 64 67 78 75 66 92 92 95 80 65 70 56 56 50 44 45 46 56 55 58 59 60 60 59 57 56 55 54 53 54 54 54 54 54 54 54 53 51 49 47 45
77 81 68 62 66 63 79 67 68 79 89 72 80 82 55 53 52 45 49 48 62 63 65 64 62 62 62 60 58 58 58 59 59 58 56 54 52 51 49 47 46 45 44 41
73 66 57 64 60 61 74 73 59 56 72 77 68 66 54 50 49 49 47 48 48 60 70 68 67 65 63 62 63 65 64 61 57 54 51 50 48 47 46 43 41 39 37 35
96 82 70 66 69 67 58 55 67 59 88 89 88 84 47 44 45 43 46 48 50 56 65 69 68 67 68 72 71 67 62 56 53 50 49 46 44 42 41 39 35 32 28 24
97 97 94 88 72 71 71 66 62 55 55 62 74 59 49 45 46 45 44 51 56 61 68 74 77 79 79 76 70 63 58 53 50 48 46 44 42 40 36 32 26 20 16 12
94 98 97 88 95 82 75 71 67 65 77 67 70 59 51 50 48 51 54 58 63 71 77 82 86 86 82 75 67 59 54 51 49 48 45 42 36 30 24 19 15 12 10 8
97 98 97 98 98 98 97 79 74 84 74 70 80 67 55 48 52 54 54 57 62 70 79 86 89 86 80 72 64 58 55 52 48 43 36 30 24 20 16 13 11 10 9 8
98 97 91 72 62 65 81 86 91 96 98 87 80 73 64 61 58 57 53 59 69 78 85 90 92 88 79 70 63 57 53 47 39 32 27 22 18 15 13 11 9 7 5 4
97 97 93 89 81 74 68 72 88 98 96 98 83 81 78 82 83 65 55 59 66 73 84 94 96 96 93 90 90 66 46 37 30 25 21 17 15 12 8 5 4 3 2 2
97 97 96 100 96 98 95 85 86 96 97 98 97 97 94 79 77 76 60 67 74 91 97 96 96 95 80 62 52 42 35 29 24 20 15 11 6 4 3 3 3 2 2 3
98 96 96 94 98 97 97 94 92 87 87 93 97 87 88 96 96 97 96 95 96 96 96 96 88 78 67 52 39 32 27 21 14 9 5 4 4 4 4 4 4 4 5 5
96 96 96 95 96 95 84 83 95 99 93 91 92 95 97 97 97 96 95 96 95 96 96 94 83 59 44 36 29 20 13 7 5 5 5 5 6 6 6 7 7 7 7 8
96 96 95 95 94 91 82 82 86 97 97 98 98 96 97 97 96 96 95 96 96 95 91 66 47 39 31 20 10 6 6 6 7 8 8 9 10 11 12 13 14 15 15 16
97 96 96 95 95 94 90 75 90 97 95 96 96 96 96 95 93 94 98 96 90 64 48 40 30 18 9 6 7 8 9 9 9 10 12 14 16 17 18 18 20 22 22 22
97 97 96 96 95 80 57 76 97 90 58 81 53 56 78 86 90 89 79 55 46 38 25 13 6 6 8 9 9 10 12 15 16 19 20 22 23 21 20 21 26 28 29 28
89 93 95 95 91 45 36 35 47 41 33 35 42 52 67 63 51 46 38 28 17 8 6 8 10 10 11 12 16 20 24 22 21 18 18 19 19 19 19 21 24 27 30 36
83 87 85 92 93 95 94 51 85 44 40 44 47 44 44 35 28 18 9 7 8 10 11 12 14 18 22 23 22 19 15 11 10 10 10 11 11 12 13 14 14 16 26 32
61 70 61 88 74 90 50 40 49 54 47 44 40 29 20 10 7 7 10 11 12 14 19 23 25 24 18 12 10 9 8 8 8 8 8 9 9 10 11 13 15 18 21 28
56 54 50 46 52 58 54 56 53 47 38 26 15 8 8 9 11 12 14 18 23 24 17 10 8 8 9 8 8 8 8 7 7 8 8 10 11 13 15 17 19 21 23 30
66 58 52 49 57 51 51 50 39 26 14 8 9 11 12 13 16 22 25 20 10 8 8 8 8 7 7 7 7 7 6 6 7 8 10 12 14 16 18 20 21 25 28 32
Wind_Speed
32 33 37 37 30 25 25 30 27 25 27 27 25 28 16 26 26 27 28 28 29 29 29 28 28 26 25 24 21 20 21 21 22 22 21 20 19 18 17 17 17 16 16 16
31 39 34 34 28 23 24 26 26 24 22 26 23 24 28 25 26 29 30 29 30 30 30 29 28 27 25 22 19 17 18 19 20 22 22 21 21 21 21 20 20 20 19 19
37 35 35 33 34 27 22 26 29 25 23 23 24 28 30 31 30 30 30 31 31 31 29 29 28 27 25 22 19 16 15 16 18 20 21 21 22 22 22 21 21 21 22 22
32 30 25 35 34 34 30 22 21 27 27 21 26 10 30 35 35 35 33 32 32 32 30 29 27 26 25 22 20 17 16 15 16 17 18 19 21 22 22 23 23 24 25 25
31 26 29 26 38 36 32 23 17 20 28 22 19 12 22 28 35 36 38 36 34 31 30 27 26 25 24 22 20 18 18 17 17 18 19 20 22 23 24 25 25 25 25 25
29 22 18 29 25 32 29 21 17 17 20 6 23 20 20 32 31 30 35 39 38 33 31 28 26 25 24 23 21 20 19 18 18 19 20 20 21 22 21 22 22 20 19 18
26 24 20 19 27 28 33 28 5 3 5 5 15 17 33 15 27 25 30 33 37 34 31 28 27 26 25 23 22 21 19 18 18 18 18 18 18 17 16 16 15 14 14 14
21 13 33 28 30 32 39 38 15 8 6 7 8 12 20 17 32 21 25 28 33 35 33 30 28 26 25 23 22 21 20 19 18 17 17 16 16 16 16 15 15 16 17 18
18 22 15 23 30 30 35 37 37 8 2 4 12 17 29 25 20 32 21 21 30 33 33 31 29 26 25 24 23 21 20 19 18 17 17 17 17 17 17 18 18 19 20 21
17 7 16 34 24 29 29 34 27 24 7 6 5 8 20 22 30 29 33 35 28 29 31 30 28 27 25 24 22 21 21 20 19 18 18 18 18 19 20 20 22 23 24 26
40 23 9 28 32 32 31 29 29 20 26 6 2 8 14 21 23 23 28 31 32 30 29 29 27 26 24 23 22 22 21 20 20 19 20 20 21 21 23 24 26 27 29 31
39 22 14 20 32 35 32 33 38 23 14 22 10 12 1 14 19 25 25 26 28 29 28 27 25 24 24 23 22 22 21 21 21 21 22 22 23 24 26 28 29 31 32 34
33 18 9 10 21 31 40 34 32 40 24 28 10 9 26 15 12 12 18 24 26 26 25 25 24 24 24 23 23 22 22 22 22 22 23 24 26 28 29 31 32 34 35 36
22 27 21 20 11 22 39 40 45 39 24 27 33 22 18 17 16 14 18 21 23 23 24 24 24 24 24 24 23 22 22 22 22 23 25 26 28 30 32 33 35 36 37 38
25 20 32 38 24 22 17 26 38 44 44 21 25 29 27 22 23 26 25 25 24 25 25 27 28 27 25 23 22 21 21 22 23 25 27 28 30 32 33 35 36 37 38 38
30 24 28 32 38 35 27 28 28 37 40 42 38 33 28 25 27 27 27 26 29 30 29 26 23 20 20 20 20 20 22 23 24 27 28 30 32 33 35 36 37 37 38 38
20 24 21 10 23 28 22 39 36 36 36 40 40 37 34 29 31 35 35 32 25 23 23 21 20 20 19 19 19 20 22 23 25 29 30 32 33 35 35 36 37 38 38 39
22 19 18 8 10 5 18 23 36 37 36 37 37 36 30 26 26 28 24 22 23 23 20 18 17 18 18 17 18 21 24 25 28 30 31 33 33 34 36 36 37 38 39 40
23 21 9 10 13 9 11 15 24 32 30 31 29 25 20 23 24 26 27 26 22 18 16 16 16 16 18 18 19 23 25 27 30 31 31 34 34 35 36 37 38 40 41 41
21 20 17 11 5 7 6 14 21 23 19 23 21 20 21 27 31 28 25 22 18 16 15 14 15 17 19 18 21 24 28 30 34 33 33 35 37 39 40 41 42 43 45 45
17 16 17 12 5 4 6 12 18 13 9 16 17 20 23 22 19 21 20 18 15 13 13 13 14 17 20 22 24 26 28 33 35 36 37 38 41 43 44 45 45 46 47 48
16 12 9 9 4 5 9 15 15 7 19 23 26 25 26 23 21 20 16 14 12 11 11 12 15 19 22 24 25 27 30 35 38 40 41 41 43 44 47 48 47 47 48 48
12 12 9 12 9 9 16 16 12 15 22 28 26 26 22 19 17 15 12 10 8 9 11 13 16 19 24 28 29 30 34 38 40 42 43 44 45 45 46 48 48 48 48 47
15 17 10 12 12 18 22 20 26 28 27 28 24 20 18 15 13 10 8 6 7 9 12 15 18 21 26 30 33 36 38 41 43 45 45 46 47 47 46 47 47 48 47 47
13 17 15 10 21 26 30 33 32 30 25 22 20 18 15 12 8 5 3 5 9 12 15 18 22 24 27 31 33 38 42 45 46 47 48 48 48 48 48 48 47 48 47 47
14 16 17 21 33 29 35 33 28 25 22 21 17 13 9 6 3 1 5 9 12 15 19 22 25 28 31 33 35 39 42 45 47 48 48 49 50 50 50 50 48 45 47 46
Wind_Direction
196 197 201 209 210 217 211 199 204 201 200 204 211 214 216 219 220 221 224 228 231 235 237 237 242 248 253 256 256 252 248 242 242 244 245 246 247 245 241 241 241 240 242 246
201 210 209 206 206 206 206 202 204 205 208 212 217 222 226 227 226 228 230 231 234 237 240 243 245 248 250 250 249 247 242 238 238 241 244 246 248 249 249 245 246 248 249 250
209 223 212 210 207 208 205 209 209 213 211 217 223 232 231 233 235 236 238 238 239 240 240 243 246 246 244 244 242 240 237 237 238 240 242 245 249 251 253 255 255 255 256 258
218 220 220 214 214 215 213 208 214 223 223 216 223 250 240 240 242 243 244 245 244 245 245 244 243 243 242 240 238 237 237 239 241 244 248 251 254 258 259 261 263 266 268 269
218 224 220 221 223 215 223 218 214 220 217 216 215 226 244 240 243 246 246 245 244 244 245 242 241 241 241 240 238 237 238 241 244 248 250 254 257 261 265 269 270 271 273 275
222 226 222 235 228 221 214 204 193 202 211 236 232 220 256 246 255 251 242 240 239 238 239 239 238 238 239 240 242 242 242 244 246 248 250 253 255 258 261 263 267 271 272 273
218 217 219 217 217 212 211 197 129 181 193 228 219 221 240 246 247 246 241 239 235 233 235 236 235 234 235 237 240 243 244 244 244 244 245 247 249 252 254 256 259 263 265 267
205 212 218 214 209 200 204 201 186 202 198 201 191 227 234 242 237 242 237 227 227 232 233 232 232 232 232 234 237 240 241 241 240 239 237 238 239 242 245 250 254 258 263 268
211 219 218 213 217 213 206 207 213 225 188 183 212 232 242 239 233 232 231 227 227 224 226 226 228 229 230 233 235 235 233 231 231 232 234 236 240 244 249 254 259 264 268 272
213 207 204 210 206 213 223 219 203 219 179 225 226 241 227 233 235 234 232 234 227 222 223 225 226 227 229 228 226 225 226 228 231 233 237 241 246 251 256 261 265 269 272 274
222 222 201 211 209 213 210 207 210 220 228 221 210 242 214 228 236 234 232 228 227 224 222 223 223 222 221 220 221 223 225 228 232 236 242 247 253 258 263 267 271 274 276 278
223 218 213 210 216 210 212 215 217 217 213 231 247 239 265 228 230 231 230 229 225 221 219 218 218 218 219 220 221 223 226 230 235 241 247 253 259 264 269 272 276 279 281 282
218 213 183 205 224 224 216 208 215 221 233 230 208 228 237 232 233 250 224 226 224 223 220 217 216 215 216 218 220 223 229 236 242 249 255 262 267 272 276 279 281 283 284 285
215 224 220 231 223 220 222 227 223 221 223 231 233 234 228 233 244 256 235 218 214 214 214 214 215 216 215 218 223 227 235 243 251 260 267 273 277 280 283 284 286 287 288 288
235 231 232 236 238 233 226 227 229 227 228 218 235 239 238 247 257 239 222 213 209 204 207 210 210 211 214 220 228 235 244 255 264 271 276 280 283 286 288 289 290 290 290 290
244 241 242 237 238 239 233 231 229 226 232 241 244 246 245 232 220 225 220 211 205 206 209 211 210 212 219 225 236 248 258 267 274 280 285 287 289 290 290 290 290 290 291 292
255 242 238 239 235 232 237 233 229 229 231 232 235 243 244 234 236 225 211 206 203 202 202 203 204 213 225 237 248 260 269 277 282 284 286 288 288 290 291 291 292 292 292 292
250 245 233 225 167 218 240 238 228 227 230 229 234 244 244 233 220 208 195 199 197 198 196 202 215 227 238 249 262 272 279 283 284 285 288 290 291 292 292 292 292 292 292 291
239 232 208 188 201 265 246 230 217 215 222 223 225 226 210 190 189 186 189 190 191 193 201 212 226 241 255 266 273 278 282 285 286 289 292 291 292 292 293 293 294 294 293 293
218 217 210 185 186 208 247 215 207 211 222 215 206 194 189 188 187 185 182 184 187 196 207 224 244 259 270 276 281 285 289 290 288 292 292 293 295 295 294 294 294 293 293 292
191 203 210 197 209 235 244 193 174 170 193 177 168 167 170 171 169 172 173 177 187 205 226 243 257 269 277 282 285 287 291 289 293 294 295 295 294 294 294 293 293 292 291 291
193 188 184 192 179 232 173 173 171 181 161 156 150 149 151 156 158 162 171 185 202 220 236 256 270 278 283 286 289 291 290 290 292 292 293 293 292 292 293 292 291 290 289 289
193 200 189 194 196 172 175 174 185 149 157 144 145 145 146 152 159 167 177 189 211 241 259 270 279 287 290 292 293 293 292 293 293 294 295 295 295 294 293 293 292 291 289 289
206 203 206 186 190 167 164 168 149 142 143 140 142 145 147 153 157 163 182 214 247 268 282 289 292 294 297 300 301 302 301 300 300 300 300 298 297 295 294 292 292 291 291 290
208 197 200 189 163 153 149 148 146 142 142 141 143 145 147 150 157 170 210 262 285 296 300 304 305 305 303 304 305 304 303 302 302 301 300 299 298 297 295 294 293 292 291 289
208 192 179 170 160 156 148 145 143 143 143 143 142 141 142 143 153 251 302 308 310 312 314 316 315 312 310 308 307 304 302 301 301 300 299 299 297 296 294 292 290 289 289 288